Regional Weather Roundup
Issued by NWS Grand Forks, ND

Home | Current Version | Previous Version | Text Only | Print | Product List | Glossary On
Versions: 1 2 3 4 5 6 7 8 9 10 11 12 13 14 15 16 17 18 19 20 21 22 23 24 25 26 27 28 29 30 31 32 33 34 35 36 37 38 39 40 41 42 43 44 45 46 47 48 49 50
000
ASUS43 KFGF 242210
RWRFGF
PRAIRIE TO PINES  WEATHER ROUNDUP
NATIONAL WEATHER SERVICE EASTERN NORTH DAKOTA/GRAND FORKS ND
500 PM CDT WED AUG 24 2016

 **SATELLITE DATA USED TO AUGMENT SKY COVER AT AUTOMATED STATIONS**
 *****  WEATHER ACROSS EASTERN NORTH DAKOTA  *****

CITY           SKY/WX    TMP DP  RH WIND       PRES   REMARKS
GRAND FORKS    MOSUNNY   74  52  46 W16G30    29.88S
GRAND FRKS AFB MOSUNNY   72  51  47 W16G23    29.90S
GRAND FRKS NWS   N/A     75 N/A N/A W22         N/A
DEVILS LAKE    PTSUNNY   68  51  54 W18       29.92S
FARGO          MOSUNNY   75  51  43 W18       29.93S
WAHPETON ARPT  PTCLDY    73  50  43 W16       29.96F
$$

 ***** WEATHER ACROSS CENTRAL AND WESTERN NORTH DAKOTA  *****

CITY           SKY/WX    TMP DP  RH WIND       PRES   REMARKS
BISMARCK       PTSUNNY   72  47  40 W18G25    30.01S
MINOT          PTSUNNY   71  46  40 W22G33    29.94R
JAMESTOWN      PTSUNNY   69  52  54 NW16      29.96F
MINOT AFB      MOSUNNY   69  47  45 W21G33    29.92R
GARRISON         N/A     67  49  52 W17G29    29.99S
WILLISTON      CLOUDY    64  50  60 W17       30.05R
DICKINSON      PTSUNNY   66  42  41 NW25G32   30.07R
HETTINGER      SUNNY     74  41  30 NW23G33   30.09S
$$

 *****  OTHER AIRPORT OBSERVATIONS IN OUR AREA  *****

CITY           SKY/WX    TMP DP  RH WIND       PRES   REMARKS
WALHALLA       NOT AVBL
GRAFTON AIRPOR MOCLDY    72  54  53 W13       29.89S
VALLEY CITY AR CLOUDY    72  52  49 W21G26    29.98S
CANDO          NOT AVBL
CAVALIER APRT  MOCLDY    70  52  52 W9        29.85F
GWINNER        FAIR      75  54  46 W20       29.98S
ROLLA          CLOUDY    63  52  67 W13       29.90R
 ***** THE ABOVE OBSERVATIONS ARE NON NWS ARE NOT QUALITY
       CONTROLLED AND MAY MIS-REPORT RAIN FOR SNOW...
$$

  *****  WEATHER ACROSS NORTHERN MINNESOTA  *****

CITY           SKY/WX    TMP DP  RH WIND       PRES   REMARKS
FLAG ISLAND    MOSUNNY   73  52  46 SW7       29.80R HAZE
WARROAD        MOSUNNY   72  55  56 W13G22    29.85R
ROSEAU         SUNNY     73  55  53 W14       29.85S
HALLOCK        PTSUNNY   72  52  49 W12       29.85S
THF RVR FALLS  CLOUDY    71  51  49 W15       29.90F
BAUDETTE       PTSUNNY   73  54  51 W14G21    29.85R
WASKISH        MOSUNNY   73  57  56 W17G23    29.88R
CROOKSTON      PTSUNNY   75  52  43 W17       29.91R
STEPHEN NDAWN    N/A     72  54  53 W10         N/A
GREENBUSH NDAW   N/A     72  52  49 SW10        N/A
$$
  *****  WEATHER ACROSS CENTRAL AND WEST MINNESOTA  *****

CITY           SKY/WX    TMP DP  RH WIND       PRES   REMARKS
FOSSTON        CLOUDY    68  52  56 W10       29.93S
BEMIDJI        PTSUNNY   71  54  55 W16       29.91S
PARK RAPIDS    CLOUDY    73  53  49 W12G24    29.94R
ELBOW LAKE     FAIR      71  56  58 NW13G21   29.98S
WADENA         NOT AVBL
DETROIT LAKES  MOSUNNY   72  54  53 W13       29.97S
MOORHEAD       PTSUNNY   73  52  46 W13G23    29.95S
FERGUS FALLS   MOSUNNY   72  55  56 NW15G22   29.98S
MORRIS MN      MOSUNNY   77  55  47 W14         N/A
STAPLES        PTSUNNY   72  54  53 W15G22    29.95R
$$
  *****  WEATHER ELSEWHERE ACROSS MINNESOTA  *****

CITY           SKY/WX    TMP DP  RH WIND       PRES   REMARKS
DULUTH         CLOUDY    78  54  43 W13       29.86S
INTRNTL FALLS  PTSUNNY   75  54  47 W12G22    29.83R
ELY            MOSUNNY   75  52  43 W8G21     29.84R
CLOQUET        CLOUDY    79  52  38 W9G16     29.88R
WHEATON        MOSUNNY   77  57  50 W14G21    29.99S
BRAINERD       PTSUNNY   74  54  49 W13       29.93R
HIBBING        PTSUNNY   75  53  46 W8        29.86S
ALEXANDRIA     CLOUDY    73  55  53 W14       29.99R
SAINT CLOUD    CLOUDY    75  56  51 W15G25    29.95S
MINNEAPOLIS    CLOUDY    78  53  41 W14       29.95R
$$

  *****  WEATHER ACROSS SOUTH DAKOTA  *****

CITY           SKY/WX    TMP DP  RH WIND       PRES   REMARKS
SIOUX FALLS    CLOUDY    73  60  63 NW7       30.05R
BROOKINGS      CLOUDY    71  57  61 NW9       30.04S
WATERTOWN      CLOUDY    74  54  49 NW13G21   30.03S
HURON          CLOUDY    75  52  44 NW10      30.04S
SISSETON         N/A     74  53  48 NW17      29.97S
ABERDEEN       MOSUNNY   78  50  37 W16       30.01S
MITCHELL       CLOUDY    73  59  61 NW7       30.05F
PIERRE         CLOUDY    78  47  33 NW10      30.05F
MOBRIDGE       MOSUNNY   81  45  28 NW18G25   30.00F
RAPID CITY     SUNNY     76  46  34 N12       30.13F
$$

  *****  SOME WEATHER IN NEARBY STATES *****

CITY           SKY/WX    TMP DP  RH WIND       PRES   REMARKS
GLASGOW MT     CLOUDY    60  46  59 NW28G33   30.18R
GREAT FALLS MT CLOUDY    61  38  42 SE6       30.34S
CHEYENNE WY    CLOUDY    68  43  40 S23G30    30.21F
SCOTTSBLUFF NE CLOUDY    74  47  38 E10       30.13F
OMAHA NE       CLOUDY    76  63  64 NW8       30.03R
DES MOINES IA  CLOUDY    81  71  71 SW8       29.97R
DAVENPORT IA   SUNNY     85  68  56 SW12      29.96R
CHICAGO IL     PTSUNNY   83  72  69 W9        29.92R
EAU CLAIRE WI  PTSUNNY   79  64  60 W9        29.92R
LA CROSSE WI   SUNNY     82  32  16 NW12      29.91R
$$

  *****  SOME NATIONAL WEATHER *****

CITY           SKY/WX    TMP DP  RH WIND       PRES   REMARKS
LA GUARDIA NY  MOSUNNY   82  60  47 S16       30.16F
RALEIGH NC     PTSUNNY   84  63  49 E3        30.21F
ATLANTA GA     CLOUDY    78  73  84 SE3       30.22F
NEW ORLEANS LA TSTM      91  77  63 CALM      30.07F HX 104
OKLAHOMA CITY  MOSUNNY   95  63  34 SW22      29.98F HX  96
ALBUQUERQUE NM PTSUNNY   75  48  38 W5        30.18F
SALT LAKE CITY MOSUNNY   83  16   8 NW15G23   30.11F
LOS ANGELES CA SUNNY     74  59  59 W9        29.98F
BOISE ID       SUNNY     82  30  15 W14G23    30.09F
SEATTLE WA     MOSUNNY   83  54  36 N12       30.19F
$$

*** WEATHER ACROSS MANITOBA...SASKATCHEWAN AND ONTARIO ***
                ***ONTARIO***

CITY           SKY/WX    TMP DP  RH WIND       PRES   REMARKS
GERALDTON      PTSUNNY   75  63  64 S9        29.73S
THUNDER BAY    PTSUNNY   77  66  69 S10       29.72S
SIOUX LOOKOUT  MOSUNNY   73  61  64 NW10      29.76R
TORONTO        PTSUNNY   84  57  39 S14G21    30.01F
BIG TROUT LK   RAIN      54  52  94 NE5       29.91R
PICKLE LAKE    LGT RAIN  59  59 100 NE7       29.78R
DRYDEN         MOSUNNY   77  54  44 W16G23    29.78R
KENORA         PTSUNNY   75  54  46 SW17      29.79R
$$
                *** MANITOBA***

CITY           SKY/WX    TMP DP  RH WIND       PRES   REMARKS
BRANDON        PTSUNNY   70  52  52 W14G21    29.81S
DAUPHIN        TSTM      61  57  88 N17G23    29.83R
ISLAND LAKE    PTSUNNY   61  50  67 E8        29.93R
PILOT MOUND      N/A     66  50  55 W15G23      N/A
THE PAS        MOSUNNY   70  52  52 N7        29.99S
THOMPSON       MOSUNNY   68  43  40 N6        29.97F
WINNIPEG       PTSUNNY   73  50  43 W15       29.79S
LYNN LAKE      MOSUNNY   72  48  43 MISG      30.02F
CHURCHILL      PTSUNNY   57  43  58 NE6       29.94F
GILLAM         MOSUNNY   66  41  39 W6        29.94F
$$
                ***SASKATCHEWAN***

CITY           SKY/WX    TMP DP  RH WIND       PRES   REMARKS
ESTEVAN        LGT RAIN  57  54  88 NW25G33   29.97R
KINDERSLEY     PTSUNNY   64  45  48 NW12      30.21S
LLOYDMINSTER   PTSUNNY   72  45  37 N12       30.20F
PRINCE ALBERT  MOSUNNY   72  50  46 N15       30.08F
REGINA         CLOUDY    57  50  77 N22       30.08R
YORKTON        LGT RAIN  54  52  94 N18G25    29.97R
N. BATTLEFORD  PTSUNNY   68  45  42 NW15G26   30.18F
LA RONGE       MOSUNNY   73  48  40 N8        30.09S
SASKATOON      MOSUNNY   66  50  55 NW7       30.14F
SWIFT CURRENT  CLOUDY    57  48  72 N14       30.20S
$$
NOTE: THESE ARE AUTOMATED STATIONS WITH LIMITED QUALITY CONTROL
      "FAIR" INDICATES FEW OR NO CLOUDS BELOW 12,000 FEET WITH NO
      SIGNIFICANT WEATHER AND/OR OBSTRUCTIONS TO VISIBILITY.
      SKY/WX - SKY CONDITION AND SIGNIFICANT WEATHER.
      TMP - AIR TEMPERATURE.    DP   - DEWPOINT TEMPERATURE.
      RH  - RELATIVE HUMIDITY.  PRES - PRESSURE.
      HX  - HEAT INDEX.         WCI  - WIND CHILL INDEX.
$



USA.gov is the U.S. government's official web portal to all federal, state and local government web resources and services.